Volver al catálogo

ICEYE-X6

ActivoCienciaPO
NORAD 46497·PAYLOAD·🇫🇮 Finland

Lanzado Sep 28, 2020 desde Plesetsk Cosmodrome

Loading…

Próximos Pases (próximas 24 horas)

TLE

ActualizadoSource: Space-Track

Época: Sep 14, 2026, 23:07 UTC

1 46497U 20068M   26257.96378419  .00001456  00000-0  10760-3 0  9998
2 46497  98.1040 255.9857 0007894 139.6900 220.4912 15.04909783326738

Sigue ICEYE-X6 en tiempo real con AllMySat

Download on the App Store